Weather History for KBKE - February, 2014

Change the Weather History Date:

Sunday, February 2, 2014

  Actual Average Record
Temperature  
Mean Temperature 21 °F 27 °F  
Max Temperature 34 °F 36 °F 50 °F (1968)
Min Temperature 7 °F 17 °F -24 °F (1950)
Degree Days  
Heating Degree Days 44 38  
Month to date heating degree days 85 76  
Since 1 July heating degree days 4631 4599  
Cooling Degree Days 0 0  
Month to date cooling degree days 0 0  
Year to date cooling degree days 0 0  
Moisture  
Dew Point 12 °F    
Average Humidity 85    
Maximum Humidity 100    
Minimum Humidity 69    
Precipitation  
Precipitation T in 0.02 in 0.21 in (1987)
Month to date precipitation 0.05 0.04  
Year to date precipitation 0.55 0.84  
Sea Level Pressure  
Sea Level Pressure 30.01 in    
Wind  
Wind Speed 3 mph (North)    
Max Wind Speed 13 mph    
Max Gust Speed 16 mph    
Visibility 6 miles    
Events Fog , Snow    
T = Trace of Precipitation, MM = Missing Value Source: NWS Daily Summary

Daily Weather History Graph

Daily Weather History Graph

Search for Another Location

Airport or City:

Trip Planner

Search our weather history database for the weather conditions in past years. The results will help you decide how hot, cold, wet, or windy it might be!

Date:

Astronomy

Feb. 02, 2014 Rise Set
Actual Time 7:09 AM PST 5:01 PM PST
Civil Twilight 6:38 AM PST 5:32 PM PST
Nautical Twilight 6:03 AM PST 6:07 PM PST
Astronomical Twilight 5:29 AM PST 6:41 PM PST
Moon 8:28 AM PST (2/2) 9:02 PM PST (2/2)
Length of Visible Light 10h 54m
Length of Day
9h 51m
Waxing Crescent, 12% of the Moon is Illuminated
Feb 2
Waxing Crescent
Feb 6
First Quarter
Feb 14
Full
Feb 22
Last Quarter
Mar 1
New

Hourly Weather History & Observations

Time (PST) Temp. Windchill Dew Point Humidity Pressure Visibility Wind Dir Wind Speed Gust Speed Precip Events Conditions
12:16 AM 10.0 °F 3.6 °F 7.0 °F 87% 30.02 in 1.2 mi North 3.5 mph - N/A   Scattered Clouds
12:24 AM 10.0 °F 3.6 °F 7.0 °F 87% 30.02 in 1.0 mi North 3.5 mph - N/A   Mist
12:31 AM 10.0 °F 3.6 °F 8.1 °F 92% 30.02 in 0.5 mi North 3.5 mph - N/A Fog Light Freezing Fog
12:49 AM 10.4 °F - 8.6 °F 92% 30.02 in 2.0 mi Calm Calm - N/A   Mostly Cloudy
12:50 AM 10.4 °F - 8.6 °F 92% 30.02 in 2.5 mi Calm Calm - N/A   Scattered Clouds
12:53 AM 10.9 °F - 8.1 °F 88% 30.13 in 5.0 mi Calm Calm - N/A   Scattered Clouds
1:09 AM 12.0 °F - 8.1 °F 84% 30.02 in 2.5 mi Calm Calm - N/A   Mostly Cloudy
1:13 AM 12.0 °F - 8.1 °F 84% 30.02 in 1.8 mi Calm Calm - N/A   Scattered Clouds
1:24 AM 12.0 °F - 8.1 °F 84% 30.02 in 3.0 mi Calm Calm - N/A   Scattered Clouds
1:32 AM 10.9 °F - 7.0 °F 84% 30.02 in 1.8 mi Calm Calm - N/A   Scattered Clouds
1:36 AM 10.9 °F - 7.0 °F 84% 30.02 in 0.8 mi Calm Calm - N/A   Mist
1:53 AM 10.0 °F 3.6 °F 7.0 °F 87% 30.13 in 0.5 mi NNE 3.5 mph - N/A Fog Light Freezing Fog
2:08 AM 10.0 °F 3.6 °F 6.1 °F 84% 30.02 in 1.2 mi WNW 3.5 mph - N/A   Scattered Clouds
2:11 AM 10.0 °F - 5.0 °F 80% 30.02 in 3.0 mi Calm Calm - N/A   Haze
2:53 AM 9.0 °F - 3.9 °F 80% 30.12 in 10.0 mi Calm Calm - N/A   Scattered Clouds
3:02 AM 8.1 °F - 3.9 °F 83% 30.01 in 9.0 mi Calm Calm - N/A   Mostly Cloudy
3:20 AM 9.0 °F 2.4 °F 5.0 °F 84% 30.00 in 4.0 mi NE 3.5 mph - N/A   Scattered Clouds
3:27 AM 9.0 °F - 5.0 °F 84% 30.01 in 1.5 mi Calm Calm - N/A   Scattered Clouds
3:30 AM 9.0 °F - 5.0 °F 84% 30.01 in 0.8 mi Calm Calm - N/A   Mist
3:50 AM 8.6 °F - 6.8 °F 92% 30.00 in 1.0 mi Calm Calm - N/A   Mist
3:53 AM 9.0 °F - 6.1 °F 88% 30.12 in 1.8 mi Calm Calm - N/A   Scattered Clouds
3:56 AM 9.0 °F - 5.0 °F 84% 30.00 in 3.0 mi Calm Calm - N/A   Scattered Clouds
4:53 AM 7.0 °F - 3.0 °F 84% 30.12 in 10.0 mi Calm Calm - N/A   Partly Cloudy
5:08 AM 7.0 °F 0.1 °F 3.0 °F 84% 29.99 in 1.8 mi North 3.5 mph - N/A   Scattered Clouds
5:14 AM 7.0 °F 0.1 °F 3.0 °F 84% 29.99 in 1.0 mi North 3.5 mph - N/A   Mist
5:20 AM 7.0 °F 0.1 °F 3.9 °F 87% 29.99 in 0.2 mi North 3.5 mph - N/A Fog Light Freezing Fog
5:32 AM 7.0 °F - 3.9 °F 87% 29.99 in 1.0 mi Calm Calm - N/A   Mist
5:36 AM 7.0 °F - 3.9 °F 87% 29.98 in 3.0 mi Calm Calm - N/A   Mostly Cloudy
5:43 AM 7.0 °F - 3.0 °F 84% 29.98 in 9.0 mi Calm Calm - N/A   Scattered Clouds
5:53 AM 8.1 °F - 3.0 °F 80% 30.11 in 10.0 mi Calm Calm - N/A   Clear
6:53 AM 10.9 °F 2.9 °F 7.0 °F 84% 30.10 in 10.0 mi West 4.6 mph - N/A   Overcast
7:53 AM 10.0 °F 3.6 °F 5.0 °F 80% 30.11 in 10.0 mi East 3.5 mph - N/A   Partly Cloudy
8:53 AM 18.0 °F - 12.9 °F 81% 30.10 in 10.0 mi Calm Calm - N/A   Clear
9:53 AM 21.9 °F - 18.0 °F 85% 30.08 in 10.0 mi Calm Calm - N/A   Clear
10:53 AM 25.0 °F 20.7 °F 21.9 °F 88% 30.05 in 10.0 mi Variable 3.5 mph - N/A   Clear
11:53 AM 27.0 °F 20.5 °F 23.0 °F 85% 30.03 in 10.0 mi West 5.8 mph - N/A   Scattered Clouds
12:53 PM 30.9 °F 25.2 °F 25.0 °F 79% 29.99 in 10.0 mi West 5.8 mph - N/A   Overcast
1:53 PM 33.1 °F 28.7 °F 26.1 °F 75% 29.96 in 10.0 mi SSE 4.6 mph - N/A   Overcast
2:53 PM 33.1 °F 27.7 °F 25.0 °F 72% 29.96 in 10.0 mi Variable 5.8 mph - N/A   Overcast
3:53 PM 32.0 °F 27.5 °F 25.0 °F 75% 29.95 in 10.0 mi SE 4.6 mph - N/A   Overcast
4:53 PM 30.9 °F - 26.1 °F 82% 29.96 in 10.0 mi Calm Calm - N/A   Overcast
5:53 PM 30.0 °F - 26.1 °F 85% 29.96 in 10.0 mi Calm Calm - 0.00 in   Overcast
6:53 PM 30.0 °F 23.2 °F 25.0 °F 82% 29.93 in 10.0 mi ESE 6.9 mph - N/A   Overcast
7:53 PM 30.0 °F 22.4 °F 24.1 °F 79% 29.92 in 10.0 mi East 8.1 mph - N/A   Overcast
8:53 PM 28.0 °F 24.2 °F 25.0 °F 88% 29.91 in 10.0 mi SSE 3.5 mph - 0.00 in   Overcast
9:53 PM 27.0 °F 23.0 °F 25.0 °F 92% 29.89 in 9.0 mi West 3.5 mph - 0.00 in   Overcast
10:53 PM 27.0 °F 20.5 °F 26.1 °F 96% 29.89 in 9.0 mi SW 5.8 mph - N/A   Overcast
11:53 PM 27.0 °F 21.6 °F 26.1 °F 96% 29.88 in 2.5 mi SW 4.6 mph - 0.00 in Snow Light Snow